sat.trackr.live / text

‹ back to catalog

STARLINK-35407

NORAD 66334 · 2025-253R

PAYLOAD ACTIVE UNKNOWN

§ Identity

Operator
Country
US
Launch date
2025-11-06
Launch site
AFETR
Launch vehicle
Mass (kg)
RCS (m²)

Purposes: comms

External: N2YO · Heavens-Above · Gunter

§ Orbital elements

Epoch: 2026-05-25T00:52:30.748800Z

Period
94.27 min
Inclination
42.9984°
Eccentricity
0.0000711
Mean motion
15.27596511 rev/d
Perigee alt
482.5 km
Apogee alt
483.5 km
Semi-major
6,861.1 km
B*
4.7111e-4
RAAN
141.0924°
Arg perigee
269.9297°
Mean anomaly
90.1473°
Rev number
3,192

§ Raw data

STARLINK-354071 66334U 25253R   26145.03646700  .00012731  00000+0  47111-3 0  99932 66334  42.9984 141.0924 0000711 269.9297  90.1473 15.27596511 31925

JSON: /api/v1/satellites/66334 · /tle

For live sub-satellite position, see the globe view (requires WebGL).

§ Visibility from observer

Set your observer location to see the next 7 days of passes ≥ 10°. The values pass through the URL so the page stays shareable.

No JS? Fill the form by hand. The geolocation button needs JavaScript.